Regional Weather Roundup
Issued by NWS Green Bay, WI

Home | Current Version | Previous Version | Text Only | Print | Product List | Glossary On
Versions: 1 2 3 4 5 6 7 8 9 10 11 12 13 14 15 16 17 18 19 20 21 22 23 24 25 26 27 28 29 30 31 32 33 34 35 36 37 38 39 40 41 42 43 44 45 46 47 48 49 50
999
ASUS43 KGRB 210211
RWRGRB

NORTH-CENTRAL AND NORTHEAST WISCONSIN REGIONAL WEATHER ROUNDUP
NATIONAL WEATHER SERVICE GREEN BAY WI
900 PM CDT FRI APR 20 2018

WIZ005-009-010>012-018-019-210300-
NORTH CENTRAL WISCONSIN

CITY           SKY/WX    TMP DP  RH WIND       PRES   REMARKS
IRONWOOD       FAIR      39  21  48 CALM      30.40R
MANITOWISH WTR FAIR      40  18  41 CALM      30.39S
ARBOR VITAE    FAIR      42  21  43 CALM      30.39S
EAGLE RIVER    FAIR      37  12  37 SW3       30.39R
LAND O LAKES   FAIR      39  20  46 NE3       30.41R
RHINELANDER    FAIR      44  18  35 SW7       30.41R
PHILLIPS       FAIR      40  22  48 CALM      30.41R
ANTIGO         FAIR      38  19  47 CALM      30.42R
TOMAHAWK       FAIR      36  16  44 CALM      30.42R
MERRILL          N/A     40  18  42 CALM      30.43R
$$

WIZ013-073-210300-
NORTHEAST WISCONSIN

CITY           SKY/WX    TMP DP  RH WIND       PRES   REMARKS
IRON MOUNTAIN  FAIR      46  18  32 SE6       30.37R
MARINETTE      FAIR      44  17  33 SW3       30.43R
OCONTO         FAIR      36  20  53 CALM      30.42R
$$

WIZ017-030-035>037-045-210300-
CENTRAL WISCONSIN

CITY           SKY/WX    TMP DP  RH WIND       PRES   REMARKS
MEDFORD        FAIR      37  19  47 CALM      30.42R
WAUSAU         FAIR      41  16  36 CALM      30.41R
MOSINEE        PTCLDY    43  12  28 CALM      30.43R
MARSHFIELD     FAIR      43  17  35 CALM      30.41R
WISC RAPIDS    FAIR      40  15  36 CALM      30.44R
STEVENS POINT  FAIR      35  18  48 CALM      30.44R
WAUPACA        FAIR      42  21  43 CALM      30.44R
SHAWANO        FAIR      46  18  32 CALM      30.42R
CLINTONVILLE   FAIR      44  15  31 SW6       30.43R
WAUTOMA        FAIR      35  26  69 CALM      30.44R
$$

WIZ038-039-048-051-210300-
FOX VALLEY

CITY           SKY/WX    TMP DP  RH WIND       PRES   REMARKS
NWS GREEN BAY  FAIR      39  25  57 SW3       30.43R
APPLETON       PTCLDY    45  18  33 CALM      30.42R
OSHKOSH        FAIR      41  21  44 S6        30.44R
FOND DU LAC    FAIR      37  20  50 CALM      30.44R
$$

WIZ022-050-052-210300-
EAST CENTRAL WISCONSIN

CITY           SKY/WX    TMP DP  RH WIND       PRES   REMARKS
EPHRAIM        FAIR      43  17  34 CALM      30.42R
WASHINGTON ISL FAIR      32  26  77 CALM      30.43R
STURGEON BAY   FAIR      43  25  49 S6        30.43S
MANITOWOC      FAIR      38  28  67 CALM      30.45R
SHEBOYGAN      FAIR      40  30  67 SW6       30.44R
$$

LMZ563-521-522-541>543-210300-
LAKESHORE

STATION/POSITION TIME  TEMP    WIND        PRES    VSBY  WAVE
                       AIR SEA DIR/SP/G                  HT/PER
                 (UTC) (F)     (DEG/KT/KT) (MB)    (MI)  (FT/S)
SHEBOYGAN LKSHOR 0200   45     210/  4/  5 1031.3R
KEWAUNEE LKSHORE 0148   38      CALM  /  2 1029.7R
NORTHPORT PIER   0140   39                 1030.1R
SISTER BAY LKSHO 0157   43        CALM       N/A
MENOMINEE LKSHOR 0148   45     200/  6/  7 1029.6R
$$




USA.gov is the U.S. government's official web portal to all federal, state and local government web resources and services.